Home   Weather   Jersey City   Past weeks

Flag for USA Past Weather in Jersey City, New Jersey, USA — Yesterday and Last 2 Weeks

Now
42 °F

Overcast.


Feels Like: 42 °F
Forecast: 36 / 45 °F
Wind: No wind

Location: Newark International Airport

Current Time: Jan 20, 2017 at 5:13:48 am

Latest Report: Jan 20, 2017 at 3:51 am


Visibility: 10 mi

Pressure: 30.02 "Hg

Humidity: 71%

Dew Point: 33 °F

Location of Jersey CityLocation

Past Weather in Jersey City — Graph

°F

Jersey City Temperature Yesterday

Maximum temperature yesterday: 49 °F (at 11:51 am)
Minimum temperature yesterday: 39 °F (at 1:51 am)
Average temperature yesterday: 43 °F

High & Low Weather Summary for the Past Weeks

 TemperatureHumidityPressure
High67 °F (Jan 12, 1:51 pm)100% (Jan 18, 3:51 am)30.77 "Hg (Jan 18, 3:51 am)
Low12 °F (Jan 9, 3:51 am)30% (Jan 13, 4:51 pm)29.85 "Hg (Jan 5, 3:51 am)
Average35 °F67%30.26 "Hg
* Reported Jan 5 3:51 am — Jan 20 3:51 am, Jersey City, Weather by CustomWeather, © 2017

Note: Actual official high and low records may vary slightly from our data, if they occured in-between our weather recording intervals... More about our weather records

Advertising

Jersey City Weather History for the Previous 24 Hours

Scroll right to see more
 ConditionsComfort  
Time TempWeatherWind HumidityBarometerVisibility
3:51 am
Fri, Jan 20
42 °FOvercast.No wind71%30.02 "Hg10 mi
2:51 am42 °FOvercast.No wind73%30.02 "Hg10 mi
1:51 am42 °FOvercast.5 mph73%30.02 "Hg10 mi
12:51 am40 °FOvercast.No wind77%30.03 "Hg10 mi
11:51 pm
Thu, Jan 19
41 °FMostly cloudy.No wind74%30.02 "Hg10 mi
10:51 pm40 °FPartly cloudy.5 mph73%30.02 "Hg10 mi
9:51 pm39 °FPassing clouds.8 mph73%30.01 "Hg10 mi
8:51 pm42 °FPassing clouds.9 mph68%30.03 "Hg10 mi
7:51 pm43 °FPassing clouds.7 mph65%30.04 "Hg10 mi
6:51 pm43 °FPartly cloudy.7 mph65%30.03 "Hg10 mi
6:01 pm44 °FPartly cloudy.10 mph65%30.03 "Hg10 mi
4:51 pm45 °FPartly sunny.10 mph65%30.01 "Hg10 mi
3:51 pm45 °FOvercast.10 mph65%29.99 "Hg10 mi
2:51 pm46 °FOvercast.12 mph63%30.00 "Hg10 mi
1:51 pm47 °FMostly cloudy.10 mph64%29.99 "Hg10 mi
12:51 pm48 °FPartly sunny.9 mph61%30.00 "Hg10 mi
11:51 am49 °FScattered clouds.14 mph61%30.02 "Hg10 mi
10:51 am47 °FScattered clouds.10 mph64%30.04 "Hg10 mi
9:51 am46 °FScattered clouds.12 mph66%30.06 "Hg10 mi
7:51 am40 °FScattered clouds.7 mph89%30.04 "Hg10 mi
6:51 am39 °FPassing clouds.5 mph89%30.03 "Hg10 mi
5:51 am40 °FPartly cloudy.No wind89%30.02 "Hg10 mi
Weather by CustomWeather, © 2017

See weather overviewHow to use our weather pages